CW7253 Weather Reports


Display with metric or nautical units.
time (UTC)temp
F
wind
direction
speed
MPH
gust
MPH
rain 1hr
in
rain 24hr
in
rain mn
in
humidity
%
barometer
mb
20260505170858 80 245 2.0 11.0 0.00 0.00 0.00 52 1008.4
20260505170357 80 262 2.0 10.0 0.00 0.00 0.00 49 1008.5
20260505165850 80 215 2.0 11.0 0.00 0.00 0.00 50 1008.6
20260505165345 80 242 3.0 16.0 0.00 0.00 0.00 47 1008.7
20260505164839 79 258 4.0 16.0 0.00 0.00 0.00 50 1008.8
20260505164328 79 248 3.0 11.0 0.00 0.00 0.00 48 1008.7
20260505163827 79 249 4.0 15.0 0.00 0.00 0.00 51 1008.9
20260505163321 79 251 3.0 15.0 0.00 0.00 0.00 50 1009.0
20260505162814 79 248 2.0 14.0 0.00 0.00 0.00 51 1009.0
20260505162306 79 257 3.0 14.0 0.00 0.00 0.00 49 1009.1
20260505161803 79 246 3.0 14.0 0.00 0.00 0.00 50 1009.1
20260505161256 79 244 2.0 10.0 0.00 0.00 0.00 50 1009.2
20260505160747 79 260 3.0 11.0 0.00 0.00 0.00 50 1009.1
20260505160245 78 240 2.0 11.0 0.00 0.00 0.00 51 1009.1
20260505153204 77 258 3.0 13.0 0.00 0.00 0.00 52 1009.2
20260505152703 77 248 2.0 13.0 0.00 0.00 0.00 52 1009.1
20260505152156 77 194 1.0 7.0 0.00 0.00 0.00 53 1009.1
20260505151650 77 240 1.0 8.0 0.00 0.00 0.00 52 1009.2
20260505151415 76 240 1.0 8.0 0.00 0.00 0.00 53 1009.3
20260505150906 76 200 1.0 12.0 0.00 0.00 0.00 55 1009.2
20260505150132 76 248 1.0 12.0 0.00 0.00 0.00 56 1009.2
20260505124350 67 122 0.0 3.0 0.00 0.00 0.00 70 1010.4
20260505123838 66 118 0.0 0.0 0.00 0.00 0.00 71 1010.3
20260505123338 66 118 0.0 0.0 0.00 0.00 0.00 73 1010.4
20260505122833 65 118 0.0 0.0 0.00 0.00 0.00 72 1010.4
20260505122326 65 118 0.0 1.0 0.00 0.00 0.00 73 1010.3
20260505121820 64 118 0.0 1.0 0.00 0.00 0.00 73 1010.3
20260505121314 64 117 0.0 0.0 0.00 0.00 0.00 74 1010.3
20260505120805 63 117 0.0 0.0 0.00 0.00 0.00 75 1010.2
20260505120256 63 117 0.0 2.0 0.00 0.00 0.00 76 1010.2
20260505115757 62 117 0.0 2.0 0.00 0.00 0.00 77 1010.1
20260505115251 62 117 0.0 0.0 0.00 0.00 0.00 78 1010.0
20260505114744 61 117 0.0 0.0 0.00 0.00 0.00 79 1010.0
20260505114238 60 117 0.0 0.0 0.00 0.00 0.00 80 1010.0
20260505113725 59 117 0.0 0.0 0.00 0.00 0.00 84 1010.0
20260505113226 58 117 0.0 0.0 0.00 0.00 0.00 84 1009.8
20260505112720 58 117 0.0 0.0 0.00 0.00 0.00 84 1009.8
20260505112214 58 117 0.0 0.0 0.00 0.00 0.00 83 1009.8
20260505111708 58 117 0.0 0.0 0.00 0.00 0.00 82 1009.8
20260505111154 58 117 0.0 0.0 0.00 0.00 0.00 82 1009.8
20260505110654 58 117 0.0 0.0 0.00 0.00 0.00 82 1009.9
20260505110419 58 117 0.0 0.0 0.00 0.00 0.00 81 1009.9
20260505102043 55 117 0.0 0.0 0.00 0.00 0.00 85 1009.3
20260505101541 54 117 0.0 0.0 0.00 0.00 0.00 86 1009.2
20260505101039 54 117 0.0 0.0 0.00 0.00 0.00 86 1009.1
20260505100812 54 117 0.0 0.0 0.00 0.00 0.00 86 1009.1
20260505100039 54 117 0.0 0.0 0.00 0.00 0.00 86 1009.2
20260505095811 54 117 0.0 0.0 0.00 0.00 0.00 85 1009.2
20260505095039 55 117 0.0 0.0 0.00 0.00 0.00 84 1009.2
20260505094541 55 117 0.0 0.0 0.00 0.00 0.00 84 1009.1
20260505094313 55 117 0.0 0.0 0.00 0.00 0.00 83 1009.3
20260505093536 56 117 0.0 0.0 0.00 0.00 0.00 83 1009.2
20260505093255 56 117 0.0 0.0 0.00 0.00 0.00 83 1009.2
20260505092512 56 117 0.0 0.0 0.00 0.00 0.00 83 1009.1
20260505092000 55 117 0.0 0.0 0.00 0.00 0.00 83 1009.1
20260505091719 56 117 0.0 0.0 0.00 0.00 0.00 83 1009.2
20260505090936 56 117 0.0 0.0 0.00 0.00 0.00 82 1008.9
20260505090436 56 117 0.0 0.0 0.00 0.00 0.00 82 1008.8
20260505085935 56 117 0.0 0.0 0.00 0.00 0.00 81 1008.8
20260505085436 56 117 0.0 0.0 0.00 0.00 0.00 80 1009.0
20260505084936 57 117 0.0 0.0 0.00 0.00 0.00 80 1008.9
20260505084436 57 117 0.0 0.0 0.00 0.00 0.00 79 1008.9
20260505083934 57 117 0.0 0.0 0.00 0.00 0.00 79 1008.9
20260505083438 58 117 0.0 0.0 0.00 0.00 0.00 78 1008.8
20260505082938 58 117 0.0 0.0 0.00 0.00 0.00 78 1008.8
20260505082703 58 117 0.0 0.0 0.00 0.00 0.00 78 1008.7
20260505081920 58 117 0.0 0.0 0.00 0.00 0.00 78 1008.7
20260505081419 58 117 0.0 0.0 0.00 0.00 0.00 78 1008.7
20260505080918 58 117 0.0 0.0 0.00 0.00 0.00 77 1008.8
20260505080651 59 117 0.0 0.0 0.00 0.00 0.00 76 1008.7
20260505075919 60 117 0.0 0.0 0.00 0.00 0.00 75 1008.7
20260505075419 60 117 0.0 0.0 0.00 0.00 0.00 74 1008.7
20260505074919 60 117 0.0 0.0 0.00 0.00 0.00 73 1008.7
20260505074421 61 117 0.0 0.0 0.00 0.00 0.00 73 1008.7
20260505074153 61 117 0.0 0.0 0.00 0.00 0.00 73 1008.6
20260505073416 62 117 0.0 0.0 0.00 0.00 0.00 71 1008.6
20260505072904 62 117 0.0 0.0 0.00 0.00 0.00 71 1008.6
20260505072352 62 117 0.0 0.0 0.00 0.00 0.00 69 1008.5
20260505071840 62 117 0.0 0.0 0.00 0.00 0.00 68 1008.5
20260505071328 62 117 0.0 0.0 0.00 0.00 0.00 69 1008.5
20260505071048 63 117 0.0 0.0 0.00 0.00 0.00 69 1008.5
20260505070301 63 117 0.0 0.0 0.00 0.00 0.00 68 1008.5
20260505065750 63 117 0.0 0.0 0.00 0.00 0.00 68 1008.5
20260505065238 63 117 0.0 0.0 0.00 0.00 0.00 68 1008.6
20260505064725 63 117 0.0 0.0 0.00 0.00 0.00 68 1008.6
20260505064214 62 117 0.0 0.0 0.00 0.00 0.00 68 1008.7
20260505063716 62 117 0.0 0.0 0.00 0.00 0.00 68 1008.6
20260505063214 62 117 0.0 0.0 0.00 0.00 0.00 68 1008.7
20260505062714 62 117 0.0 0.0 0.00 0.00 0.00 68 1008.7
20260505062214 62 117 0.0 2.0 0.00 0.00 0.00 67 1008.8
20260505061716 62 117 0.0 2.0 0.00 0.00 0.00 68 1008.9
20260505061214 62 117 0.0 0.0 0.00 0.00 0.00 67 1008.9
20260505060714 62 117 0.0 0.0 0.00 0.00 0.00 67 1008.9
20260505060216 62 117 0.0 0.0 0.00 0.00 0.00 67 1008.8
20260505055709 62 117 0.0 0.0 0.00 0.00 0.00 67 1008.9
20260505055206 62 117 0.0 0.0 0.00 0.00 0.00 67 1008.8
20260505054706 62 117 0.0 0.0 0.00 0.00 0.00 67 1008.8
20260505054209 62 117 0.0 0.0 0.00 0.00 0.00 67 1008.9
20260505053938 62 117 0.0 0.0 0.00 0.00 0.00 67 1008.9
20260505053206 62 117 0.0 0.0 0.00 0.00 0.00 67 1008.9
20260505052707 62 117 0.0 0.0 0.00 0.00 0.00 66 1009.0
20260505052204 63 117 0.0 0.0 0.00 0.00 0.00 66 1009.0
20260505051705 63 117 0.0 0.0 0.00 0.00 0.00 65 1008.9
20260505051204 63 117 0.0 0.0 0.00 0.00 0.00 65 1008.8
20260505050933 63 117 0.0 0.0 0.00 0.00 0.00 65 1008.7
20260505050424 63 117 0.0 1.0 0.00 0.00 0.00 65 1008.7
20260505041552 61 117 0.0 0.0 0.00 0.00 0.00 67 1008.5
20260505041046 61 117 0.0 0.0 0.00 0.00 0.00 66 1008.5
20260505040810 61 117 0.0 0.0 0.00 0.00 0.00 66 1008.5
20260505040034 61 117 0.0 0.0 0.00 0.00 0.00 65 1008.5
20260505035520 62 117 0.0 0.0 0.00 0.00 0.00 65 1008.5
20260505035021 62 117 0.0 0.0 0.00 0.00 0.00 65 1008.5
20260505034515 62 117 0.0 0.0 0.00 0.00 0.00 64 1008.5
20260505034004 62 117 0.0 0.0 0.00 0.00 0.00 64 1008.5
20260505033501 62 117 0.0 0.0 0.00 0.00 0.00 64 1008.5
20260505032955 63 117 0.0 0.0 0.00 0.00 0.00 63 1008.5
20260505032444 63 117 0.0 1.0 0.00 0.00 0.00 62 1008.4
20260505032440 63 117 0.0 0.0 0.00 0.00 0.00 62 1008.5
20260505031706 63 117 0.0 3.0 0.00 0.00 0.00 62 1008.4
20260505030929 64 117 0.0 7.0 0.00 0.00 0.00 61 1008.5
20260505030423 64 117 0.0 5.0 0.00 0.00 0.00 61 1008.4
20260505025917 64 117 0.0 4.0 0.00 0.00 0.00 61 1008.4
20260505025410 64 116 1.0 8.0 0.00 0.00 0.00 61 1008.2
20260505025131 64 115 1.0 8.0 0.00 0.00 0.00 61 1008.1
20260505024359 64 147 0.0 5.0 0.00 0.00 0.00 61 1008.1
20260505024123 64 147 0.0 6.0 0.00 0.00 0.00 61 1008.2
20260505023347 64 150 1.0 6.0 0.00 0.00 0.00 60 1008.1
20260505022841 64 126 0.0 7.0 0.00 0.00 0.00 60 1008.2
20260505022327 64 115 1.0 7.0 0.00 0.00 0.00 60 1008.1
20260505021835 64 163 0.0 3.0 0.00 0.00 0.00 60 1008.2
20260505021829 64 163 0.0 7.0 0.00 0.00 0.00 60 1008.1
20260505020816 64 163 0.0 2.0 0.00 0.00 0.00 60 1008.3
20260505020312 64 165 1.0 8.0 0.00 0.00 0.00 60 1008.3
20260505015805 64 165 1.0 8.0 0.00 0.00 0.00 59 1008.3
20260505015259 64 100 1.0 7.0 0.00 0.00 0.00 59 1008.3
20260505014746 64 136 0.0 7.0 0.00 0.00 0.00 60 1008.2
20260505014247 65 143 0.0 6.0 0.00 0.00 0.00 59 1008.2
20260505013741 65 151 0.0 6.0 0.00 0.00 0.00 59 1008.3
20260505013235 65 156 0.0 5.0 0.00 0.00 0.00 59 1008.4
20260505012728 65 132 0.0 7.0 0.00 0.00 0.00 59 1008.4
20260505012218 65 126 0.0 7.0 0.00 0.00 0.00 59 1008.4
20260505011715 65 123 1.0 7.0 0.00 0.00 0.00 58 1008.3
20260505011204 65 122 1.0 7.0 0.00 0.00 0.00 58 1008.2
20260505010929 66 134 0.0 6.0 0.00 0.00 0.00 58 1008.1
20260505010156 66 136 0.0 3.0 0.00 0.00 0.00 57 1008.0
20260505005649 66 136 0.0 4.0 0.00 0.00 0.00 57 1007.9
20260505005145 66 136 0.0 4.0 0.00 0.00 0.00 56 1007.9
20260505004638 67 134 1.0 12.0 0.00 0.00 0.00 56 1007.9
20260505004132 67 136 1.0 12.0 0.00 0.00 0.00 56 1007.8
20260505003627 67 126 1.0 8.0 0.00 0.00 0.00 56 1007.9
20260505003116 67 138 1.0 6.0 0.00 0.00 0.00 55 1007.9
20260505002614 68 142 0.0 5.0 0.00 0.00 0.00 55 1007.8
20260505002102 68 146 0.0 4.0 0.00 0.00 0.00 54 1007.8
20260505001603 69 146 0.0 4.0 0.00 0.00 0.00 53 1007.8
20260505001057 69 149 0.0 2.0 0.00 0.00 0.00 52 1007.8
20260505000546 70 169 0.0 1.0 0.00 0.00 0.00 51 1007.7
20260505000045 70 169 0.0 2.0 0.00 0.00 0.00 51 1007.7
20260504235536 71 169 0.0 2.0 0.00 0.00 0.00 50 1007.5
20260504235033 71 169 0.0 3.0 0.00 0.00 0.00 50 1007.5
20260504234757 71 169 0.0 7.0 0.00 0.00 0.00 49 1007.5
20260504234021 72 169 0.0 7.0 0.00 0.00 0.00 48 1007.4
20260504233515 72 169 0.0 3.0 0.00 0.00 0.00 49 1007.4
20260504233005 72 169 0.0 8.0 0.00 0.00 0.00 48 1007.4
20260504232503 72 169 1.0 8.0 0.00 0.00 0.00 47 1007.4
20260504231957 72 208 1.0 6.0 0.00 0.00 0.00 49 1007.4
20260504231451 73 210 0.0 6.0 0.00 0.00 0.00 48 1007.4
20260504230943 73 198 0.0 6.0 0.00 0.00 0.00 48 1007.5
20260504230437 73 198 0.0 6.0 0.00 0.00 0.00 48 1007.5
20260504225931 73 169 1.0 8.0 0.00 0.00 0.00 47 1007.5
20260504225424 73 192 1.0 8.0 0.00 0.00 0.00 47 1007.5
20260504224911 73 212 0.0 7.0 0.00 0.00 0.00 48 1007.5
20260504224413 73 211 1.0 7.0 0.00 0.00 0.00 47 1007.6
20260504223902 74 188 1.0 6.0 0.00 0.00 0.00 46 1007.5
20260504223631 74 188 0.0 6.0 0.00 0.00 0.00 47 1007.6
20260504222855 74 187 0.0 7.0 0.00 0.00 0.00 47 1007.6
20260504222344 74 178 1.0 8.0 0.00 0.00 0.00 47 1007.7
20260504222114 74 174 1.0 8.0 0.00 0.00 0.00 46 1007.7
20260504221332 74 183 2.0 8.0 0.00 0.00 0.00 45 1007.7
20260504220830 74 180 2.0 14.0 0.00 0.00 0.00 46 1007.7
20260504220325 74 186 2.0 14.0 0.00 0.00 0.00 44 1007.6
20260504215819 74 219 1.0 8.0 0.00 0.00 0.00 44 1007.7
20260504215312 74 242 1.0 8.0 0.00 0.00 0.00 44 1007.7
20260504214803 75 198 1.0 6.0 0.00 0.00 0.00 45 1007.7
20260504214300 75 160 1.0 7.0 0.00 0.00 0.00 45 1007.7
20260504214027 75 202 1.0 7.0 0.00 0.00 0.00 44 1007.7
20260504213248 75 243 1.0 9.0 0.00 0.00 0.00 44 1007.7
20260504212743 75 250 1.0 9.0 0.00 0.00 0.00 44 1007.6
20260504212501 75 186 0.0 6.0 0.00 0.00 0.00 44 1007.7
20260504211732 75 252 1.0 8.0 0.00 0.00 0.00 46 1007.7
20260504211225 74 252 1.0 8.0 0.00 0.00 0.00 45 1007.7
20260504210719 74 237 1.0 8.0 0.00 0.00 0.00 44 1007.7
20260504210217 74 178 2.0 11.0 0.00 0.00 0.00 44 1007.7
20260504210212 74 214 2.0 9.0 0.00 0.00 0.00 44 1007.7
20260504205432 74 248 1.0 11.0 0.00 0.00 0.00 44 1007.8
20260504204650 74 204 2.0 10.0 0.00 0.00 0.00 45 1007.8
20260504204148 74 250 2.0 10.0 0.00 0.00 0.00 44 1007.8
20260504203642 74 235 2.0 10.0 0.00 0.00 0.00 43 1007.8
20260504203408 74 235 1.0 10.0 0.00 0.00 0.00 45 1007.9
20260504202630 74 205 1.0 6.0 0.00 0.00 0.00 45 1008.0
20260504202351 74 136 1.0 7.0 0.00 0.00 0.00 46 1008.0
20260504201619 74 135 1.0 10.0 0.00 0.00 0.00 44 1008.1
20260504201108 74 181 3.0 11.0 0.00 0.00 0.00 47 1008.2
20260504200607 74 193 2.0 11.0 0.00 0.00 0.00 44 1008.1
20260504200104 74 252 1.0 8.0 0.00 0.00 0.00 48 1008.3
20260504200056 74 255 2.0 8.0 0.00 0.00 0.00 47 1008.4
20260504195049 74 232 2.0 8.0 0.00 0.00 0.00 44 1008.5
20260504194809 74 244 2.0 10.0 0.00 0.00 0.00 46 1008.5
20260504194037 74 246 2.0 10.0 0.00 0.00 0.00 46 1008.7
20260504193530 74 227 2.0 7.0 0.00 0.00 0.00 45 1008.6
20260504193024 73 227 2.0 11.0 0.00 0.00 0.00 47 1008.7
20260504192750 73 259 2.0 11.0 0.00 0.00 0.00 48 1008.8
20260504192240 73 254 2.0 9.0 0.00 0.00 0.00 47 1008.8
20260504191506 73 218 2.0 11.0 0.00 0.00 0.00 47 1009.0
20260504191001 73 171 3.0 12.0 0.00 0.00 0.00 47 1009.1
20260504190956 72 221 3.0 12.0 0.00 0.00 0.00 46 1008.9
20260504185949 72 231 2.0 11.0 0.00 0.00 0.00 47 1009.1
20260504185442 73 263 2.0 9.0 0.00 0.00 0.00 47 1009.3
20260504184937 73 227 3.0 11.0 0.00 0.00 0.00 48 1009.2
20260504184423 72 245 2.0 11.0 0.00 0.00 0.00 46 1009.3
20260504183924 73 256 1.0 9.0 0.00 0.00 0.00 45 1009.4
20260504183419 72 221 1.0 10.0 0.00 0.00 0.00 49 1009.5
20260504182913 72 224 2.0 10.0 0.00 0.00 0.00 46 1009.7
20260504182406 72 184 2.0 10.0 0.00 0.00 0.00 48 1009.6
20260504181854 72 223 1.0 7.0 0.00 0.00 0.00 46 1009.8
20260504181355 72 247 1.0 6.0 0.00 0.00 0.00 46 1009.8
20260504180841 71 154 1.0 9.0 0.00 0.00 0.00 47 1009.9
20260504180613 71 271 2.0 9.0 0.00 0.00 0.00 49 1009.9
20260504175837 71 201 2.0 9.0 0.00 0.00 0.00 46 1010.0
20260504175330 71 177 1.0 7.0 0.00 0.00 0.00 46 1010.1
20260504174824 71 175 1.0 10.0 0.00 0.00 0.00 48 1010.2
20260504174311 71 174 1.0 10.0 0.00 0.00 0.00 47 1010.2
20260504173815 71 211 1.0 9.0 0.00 0.00 0.00 50 1010.2
20260504173307 70 209 1.0 10.0 0.00 0.00 0.00 48 1010.2
20260504172800 70 190 1.0 10.0 0.00 0.00 0.00 47 1010.3
20260504172255 70 248 1.0 8.0 0.00 0.00 0.00 51 1010.3
20260504171748 69 248 2.0 9.0 0.00 0.00 0.00 46 1010.5